User: anonymous   Login
Location: Bittkow
(50.3000°N, 19.0000°E)
Time: 03:18:47
(UTC+00:00)
Language:

Cosmos 1934 Rocket - Orbit

View from above orbital plane
View from above orbital plane
View from above satellite
View from above satellite

Ground track
Ground track

The orbit data is extracted from the following two-line orbital elements,

1 18986U 88023B   20338.14856186  .00000119  00000-0  10211-3 0  9997
2 18986  82.9540 182.5470 0040502 266.8737  92.7786 13.78649111644654
Epoch (UTC): 03 December 2020 03:33:55
Eccentricity: 0.0040502
inclination: 82.9540°
perigee height: 939 km
apogee height: 998 km
right ascension of ascending node: 182.5470°
argument of perigee: 266.8737°
revolutions per day: 13.78649111
mean anomaly at epoch: 92.7786°
orbit number at epoch: 64465

The dashed part of the orbit path shows where the satellite is in the earth's shadow,  

DLR